EZY75FC EGKK-LCPH

Flight info

Callsign EZY75FC
Flight time N/A
Altitude 35000
Route MIMFO Y312 DVR UL9 KONAN UL607 KOK M150 PITES DCT EDISA DCT UTABA DCT IRBIR DCT UMVEG DCT VEKEN DCT ETOBI DCT MEDUX UM867 KOGAT DCT ERANA/N0455F370 UL737 TSL UN130 MES UL609 RDS UM601 EVENO M601 DASNI M32 PHA
Aircraft A320/M-SDE3FGHIRWY/LB1

Departure

Time N/A
Airport London Gatwick Airport (EGKK)

Arrival

Time 2026-05-03 20:39
Airport Paphos International Airport (LCPH)
Time Latitude Longitude Altitude Speed Heading
2026-05-03 20:15 34.69477 32.56157 1146 ft 127 kts 284°
2026-05-03 20:15 34.69788 32.55134 968 ft 130 kts 283°
2026-05-03 20:15 34.69997 32.54439 841 ft 130 kts 285°
2026-05-03 20:15 34.70311 32.53417 683 ft 128 kts 283°
2026-05-03 20:16 34.70618 32.52414 512 ft 127 kts 282°
2026-05-03 20:16 34.70933 32.51385 323 ft 129 kts 283°
2026-05-03 20:16 34.71241 32.50374 160 ft 127 kts 286°
2026-05-03 20:16 34.71542 32.49394 54 ft 121 kts 283°
2026-05-03 20:17 34.71835 32.48468 400 ft 124 kts 284°
2026-05-03 20:17 34.72139 32.47458 1177 ft 131 kts 281°
2026-05-03 20:17 34.72472 32.46360 1789 ft 147 kts 283°
2026-05-03 20:17 34.72841 32.45092 2005 ft 172 kts 283°
2026-05-03 20:18 34.73242 32.43681 2020 ft 179 kts 281°
2026-05-03 20:18 34.73276 32.42181 2005 ft 179 kts 252°
2026-05-03 20:18 34.72599 32.40912 2027 ft 185 kts 223°
2026-05-03 20:18 34.71373 32.40343 2034 ft 198 kts 193°
2026-05-03 20:19 34.69980 32.40270 2031 ft 204 kts 184°
2026-05-03 20:19 34.68614 32.40915 2033 ft 224 kts 148°
2026-05-03 20:19 34.67603 32.42417 2035 ft 235 kts 128°
2026-05-03 20:19 34.66760 32.44131 2029 ft 237 kts 126°
2026-05-03 20:20 34.65947 32.45862 2039 ft 235 kts 125°
2026-05-03 20:20 34.65139 32.47578 2032 ft 233 kts 126°
2026-05-03 20:20 34.64341 32.49288 2033 ft 233 kts 125°
2026-05-03 20:20 34.63553 32.51000 2034 ft 233 kts 126°
2026-05-03 20:21 34.62763 32.52721 2032 ft 233 kts 126°
2026-05-03 20:21 34.61974 32.54436 2034 ft 233 kts 126°
2026-05-03 20:21 34.61187 32.56145 2033 ft 230 kts 126°
2026-05-03 20:21 34.60445 32.57872 2034 ft 232 kts 119°
2026-05-03 20:22 34.59854 32.59707 2038 ft 235 kts 113°
2026-05-03 20:22 34.59642 32.61673 2039 ft 238 kts 88°
2026-05-03 20:22 34.60090 32.63581 2034 ft 236 kts 57°
2026-05-03 20:22 34.61075 32.65132 2032 ft 229 kts 38°
2026-05-03 20:23 34.62380 32.66162 2030 ft 220 kts 12°
2026-05-03 20:23 34.63831 32.66476 2035 ft 206 kts 348°
2026-05-03 20:23 34.65148 32.66152 2059 ft 179 kts 327°
2026-05-03 20:23 34.66149 32.65435 2039 ft 158 kts 310°
2026-05-03 20:24 34.66838 32.64499 2051 ft 144 kts 295°
2026-05-03 20:24 34.67251 32.63431 2034 ft 137 kts 284°
2026-05-03 20:24 34.67583 32.62351 2031 ft 134 kts 284°
2026-05-03 20:24 34.67905 32.61303 1947 ft 131 kts 283°
2026-05-03 20:25 34.68220 32.60270 1803 ft 129 kts 283°
2026-05-03 20:25 34.68532 32.59248 1653 ft 128 kts 282°
2026-05-03 20:25 34.68841 32.58238 1495 ft 128 kts 282°
2026-05-03 20:25 34.69150 32.57227 1328 ft 127 kts 282°
2026-05-03 20:26 34.69458 32.56216 1156 ft 128 kts 282°
2026-05-03 20:26 34.69769 32.55199 984 ft 129 kts 284°
2026-05-03 20:26 34.70082 32.54172 818 ft 131 kts 285°
2026-05-03 20:26 34.70396 32.53142 630 ft 128 kts 282°
2026-05-03 20:27 34.70697 32.52139 453 ft 125 kts 285°
2026-05-03 20:27 34.71002 32.51157 297 ft 122 kts 283°
2026-05-03 20:27 34.71297 32.50205 147 ft 119 kts 285°
2026-05-03 20:27 34.71579 32.49272 68 ft 122 kts 283°
2026-05-03 20:28 34.71879 32.48264 748 ft 128 kts 287°
2026-05-03 20:28 34.72223 32.47213 1477 ft 141 kts 285°
2026-05-03 20:28 34.72623 32.46005 1774 ft 165 kts 285°
2026-05-03 20:28 34.73072 32.44616 1948 ft 185 kts 286°
2026-05-03 20:29 34.73547 32.43124 2004 ft 191 kts 285°
2026-05-03 20:29 34.73828 32.41578 2003 ft 186 kts 264°
2026-05-03 20:29 34.73457 32.40100 2006 ft 186 kts 238°
2026-05-03 20:29 34.72475 32.39075 2002 ft 193 kts 210°
2026-05-03 20:30 34.71112 32.38855 2032 ft 210 kts 176°
2026-05-03 20:30 34.69725 32.39719 2094 ft 239 kts 143°
2026-05-03 20:30 34.68695 32.41375 2100 ft 250 kts 127°
2026-05-03 20:30 34.67802 32.43197 2101 ft 251 kts 125°
2026-05-03 20:31 34.66933 32.45012 2101 ft 247 kts 126°
2026-05-03 20:31 34.66079 32.46819 2102 ft 246 kts 126°
2026-05-03 20:31 34.65237 32.48627 2105 ft 246 kts 125°
2026-05-03 20:31 34.64396 32.50438 2105 ft 245 kts 125°
2026-05-03 20:32 34.63554 32.52244 2104 ft 246 kts 125°
2026-05-03 20:32 34.62713 32.54056 2100 ft 247 kts 126°
2026-05-03 20:32 34.61864 32.55881 2106 ft 249 kts 126°
2026-05-03 20:32 34.61017 32.57716 2102 ft 250 kts 125°
2026-05-03 20:33 34.60236 32.59602 2099 ft 253 kts 110°
2026-05-03 20:33 34.59898 32.61701 2099 ft 251 kts 95°
2026-05-03 20:33 34.60217 32.63707 2109 ft 241 kts 59°
2026-05-03 20:33 34.61166 32.65375 2104 ft 241 kts 47°
2026-05-03 20:34 34.62352 32.66774 2101 ft 233 kts 22°
2026-05-03 20:34 34.63818 32.67308 2095 ft 208 kts 352°
2026-05-03 20:34 34.65150 32.67017 2101 ft 186 kts 326°
2026-05-03 20:34 34.66145 32.66188 2134 ft 162 kts 306°
2026-05-03 20:35 34.66715 32.65175 2114 ft 132 kts 287°
2026-05-03 20:35 34.67036 32.64142 2109 ft 129 kts 283°
2026-05-03 20:35 34.67348 32.63122 2112 ft 128 kts 283°
2026-05-03 20:35 34.67659 32.62105 2108 ft 128 kts 283°
2026-05-03 20:36 34.67968 32.61096 1986 ft 126 kts 283°
2026-05-03 20:36 34.68268 32.60113 1814 ft 124 kts 282°
2026-05-03 20:36 34.68569 32.59129 1647 ft 124 kts 282°
2026-05-03 20:36 34.68868 32.58150 1482 ft 123 kts 282°
2026-05-03 20:37 34.69164 32.57180 1323 ft 122 kts 281°
2026-05-03 20:37 34.69461 32.56209 1158 ft 123 kts 281°
2026-05-03 20:37 34.69757 32.55238 1001 ft 123 kts 284°
2026-05-03 20:37 34.70057 32.54253 832 ft 125 kts 285°
2026-05-03 20:38 34.70357 32.53272 663 ft 124 kts 284°
2026-05-03 20:38 34.70660 32.52277 492 ft 125 kts 284°
2026-05-03 20:38 34.70961 32.51291 327 ft 123 kts 285°
2026-05-03 20:38 34.71257 32.50318 171 ft 122 kts 285°
2026-05-03 20:39 34.71553 32.49360 47 ft 117 kts 285°
2026-05-03 20:39 34.71754 32.48690 46 ft 42 kts 291°
2026-05-03 20:39 34.71815 32.48495 46 ft 14 kts 291°
2026-05-03 20:39 34.71809 32.48424 44 ft 7 kts 222°
2026-05-03 20:40 34.71767 32.48402 46 ft 6 kts 198°
2026-05-03 20:40 34.71724 32.48383 46 ft 7 kts 202°
2026-05-03 20:40 34.71676 32.48361 46 ft 8 kts 199°
2026-05-03 20:40 34.71622 32.48338 46 ft 8 kts 199°
2026-05-03 20:41 34.71567 32.48314 46 ft 8 kts 199°
2026-05-03 20:41 34.71514 32.48291 46 ft 8 kts 200°
2026-05-03 20:41 34.71463 32.48268 46 ft 8 kts 201°
2026-05-03 20:41 34.71414 32.48265 46 ft 6 kts 150°
2026-05-03 20:42 34.71397 32.48306 44 ft 6 kts 107°
2026-05-03 20:42 34.71373 32.48387 46 ft 11 kts 110°
2026-05-03 20:42 34.71347 32.48471 46 ft 10 kts 110°
2026-05-03 20:42 34.71350 32.48548 46 ft 9 kts 69°
2026-05-03 20:43 34.71361 32.48600 46 ft 1 kts 137°
2026-05-03 20:43 34.71345 32.48612 46 ft 5 kts 138°
2026-05-03 20:43 34.71311 32.48634 46 ft 5 kts 159°
2026-05-03 20:43 34.71295 32.48642 46 ft 0 kts 155°
2026-05-03 20:46 34.71296 32.48642 46 ft 0 kts 155°
2026-05-03 20:47 34.71295 32.48642 46 ft 0 kts 155°